Theta_e
343 340 338 343 343 344 344 345 344 344 341 338 338 337 339 340 341 338 332 330 330 331 333 335 339 343 343 344 344 344 343 342 340 334 336 340 342 342 343 342 340 339 339 338 337 337 334 332 332 335 336 336 336 335 337 338 337 337 336 337 337 336 337 335 334 333 333 335 337 337 336 336 338 341 341 340 339 339 339 339 339 338 337 337 336
344 341 339 343 343 344 344 345 344 344 341 339 339 337 339 340 341 340 335 331 331 331 331 335 340 344 343 344 344 344 343 342 341 339 340 341 342 342 342 341 339 339 339 338 337 337 336 333 331 333 335 336 336 335 336 337 336 335 335 336 336 336 337 336 334 333 333 335 336 336 335 335 336 340 341 340 339 339 339 339 338 337 335 334 334
344 341 340 342 343 344 345 344 343 344 341 340 338 337 338 340 341 341 337 333 334 333 332 336 342 344 344 344 344 344 343 342 342 341 341 342 343 342 341 340 339 338 337 336 336 336 336 334 332 331 334 336 335 335 334 334 335 334 334 335 336 336 337 337 335 334 334 335 336 337 337 336 336 339 340 339 339 339 338 338 337 336 335 333 332
344 342 341 342 343 344 344 344 344 344 342 340 338 338 337 338 341 342 339 335 335 336 336 338 342 344 344 345 344 344 343 342 342 342 342 343 343 342 341 340 339 338 336 335 335 334 334 334 333 331 333 335 334 334 333 332 334 333 333 334 335 335 336 337 337 336 336 337 339 339 338 337 336 338 340 339 338 338 338 337 336 336 335 334 333
343 343 342 342 343 344 344 344 343 343 343 340 338 337 337 336 339 341 341 336 335 336 338 341 343 343 344 344 344 344 342 343 343 343 343 343 343 342 341 340 339 338 336 335 334 333 332 331 332 332 333 334 333 334 332 331 333 332 333 333 334 334 335 337 337 337 337 339 339 340 339 337 337 338 339 339 338 338 337 337 335 335 334 333 332
343 343 343 342 343 343 342 343 342 343 343 342 339 337 337 336 337 340 341 338 336 335 337 341 343 343 344 344 344 344 343 343 343 344 344 343 342 342 342 340 339 337 336 335 334 332 330 327 328 330 332 333 332 333 331 330 333 332 332 333 333 334 336 337 338 338 339 339 339 339 339 338 338 338 339 338 338 337 336 336 335 334 333 331 331
343 343 343 343 342 341 341 341 342 342 342 342 339 336 336 336 336 337 340 340 338 336 337 341 343 343 344 344 344 344 343 344 343 344 343 343 342 342 342 340 339 338 337 335 334 331 328 325 325 328 332 332 331 332 331 330 332 332 332 333 333 333 336 338 338 339 339 339 340 340 338 338 338 338 338 338 337 336 336 336 334 333 332 331 330
342 343 342 343 342 341 341 340 341 341 342 341 337 334 334 335 334 334 336 341 340 339 340 342 344 343 344 344 344 343 343 343 343 343 343 343 342 342 340 339 338 337 337 335 334 331 328 327 323 327 332 331 332 333 331 329 330 331 331 332 333 333 336 338 339 339 338 339 340 340 339 339 338 338 338 338 337 336 335 334 332 332 331 330 329
341 342 341 342 341 339 340 341 341 341 341 338 333 329 330 334 333 332 332 338 342 341 342 343 344 343 344 344 344 343 343 343 343 343 343 342 341 341 338 337 337 337 337 335 334 331 329 328 322 324 332 331 331 333 331 328 328 330 331 331 333 333 335 338 338 339 339 339 339 339 339 339 338 338 338 338 337 336 334 332 329 330 331 330 328
341 342 341 342 339 334 337 339 339 340 338 331 328 325 326 330 331 332 329 334 341 342 343 343 344 344 344 344 344 343 343 343 342 342 342 341 340 340 338 337 337 337 336 334 334 332 330 329 322 320 328 331 330 332 331 328 327 329 330 331 332 333 335 337 338 338 339 339 339 340 339 338 338 338 338 337 336 335 334 331 328 329 330 328 327
341 341 341 341 337 331 331 334 334 334 330 326 325 323 324 326 327 329 326 332 341 342 343 343 344 344 344 344 344 343 343 343 342 342 342 341 339 339 338 338 337 335 335 334 333 332 329 328 326 319 323 330 330 331 331 329 327 328 330 330 332 334 335 337 338 338 338 338 339 339 340 339 338 338 337 336 335 334 332 330 329 329 328 326 326
341 341 341 341 337 331 328 329 330 328 327 325 323 323 326 327 328 327 326 335 341 341 343 343 343 344 344 344 343 343 342 343 343 342 341 340 338 338 337 336 336 334 334 334 332 330 329 327 325 320 319 327 331 330 331 330 328 328 329 329 332 334 336 337 338 338 338 339 339 339 339 339 338 338 336 335 333 332 332 331 330 329 328 327 327
341 341 341 342 338 332 329 328 327 327 328 326 324 328 332 333 333 331 332 338 342 342 343 343 343 343 344 344 343 342 342 342 342 341 340 339 338 337 337 336 334 335 334 331 328 327 328 325 323 319 319 326 330 330 331 331 329 328 329 329 331 333 335 337 337 338 338 339 339 338 339 339 338 338 336 335 334 333 333 332 331 329 328 327 327
342 342 342 342 339 334 331 329 327 328 327 326 328 333 336 337 336 336 337 340 342 342 343 343 343 343 343 344 343 342 342 342 341 340 339 338 337 336 335 335 334 334 332 326 325 326 325 325 325 321 319 326 330 330 330 331 329 328 329 329 330 333 334 336 337 337 338 339 338 338 338 338 338 337 336 335 334 335 334 332 330 328 327 326 326
344 343 342 342 340 336 332 330 328 328 325 326 332 334 336 339 338 338 340 341 341 342 342 343 343 343 343 343 342 342 342 341 340 339 338 338 337 335 334 333 333 333 330 326 326 326 325 327 328 323 320 324 327 328 328 329 329 329 329 329 330 332 334 335 336 336 337 338 338 338 338 338 338 337 336 335 334 335 333 331 330 328 326 326 327
344 343 342 342 340 337 333 331 330 328 324 328 335 335 337 340 339 339 340 341 341 341 342 342 343 343 342 342 342 341 341 340 340 338 337 337 337 336 333 333 333 333 331 328 327 327 326 327 328 327 323 321 323 323 321 324 328 329 330 329 329 331 334 336 336 336 337 338 337 338 338 338 337 337 337 335 334 334 333 331 329 329 327 326 327
344 343 342 342 340 337 333 331 330 328 324 330 336 336 337 340 340 340 340 341 341 341 342 342 343 342 342 342 342 341 341 340 338 337 337 336 336 335 333 332 333 333 331 329 328 327 327 327 327 328 325 322 323 320 315 323 329 329 330 329 329 331 333 336 335 335 337 338 338 338 338 337 337 337 337 335 334 334 333 331 330 329 327 326 326
343 343 343 342 341 338 335 332 331 329 325 331 337 337 338 339 340 340 340 340 341 341 342 342 342 342 342 341 341 340 340 339 338 337 336 336 334 332 332 332 332 332 331 330 329 328 328 327 327 327 325 323 324 320 316 323 330 329 330 329 329 330 332 335 335 335 336 337 338 338 338 337 336 337 337 336 335 334 332 332 330 329 326 325 325
342 344 343 342 341 338 337 336 334 332 329 331 336 338 338 338 339 339 339 340 341 342 341 342 342 341 342 341 340 339 339 339 338 337 336 335 331 329 331 331 331 333 331 330 330 329 328 327 327 327 325 324 323 323 319 319 327 330 329 329 329 329 331 333 336 336 335 337 338 338 338 337 336 336 337 336 336 334 332 332 331 329 326 326 325
341 343 344 342 340 339 339 338 336 336 333 329 331 336 337 338 339 338 338 339 339 341 341 341 341 341 341 341 340 339 339 338 337 337 336 334 330 327 329 329 328 330 331 330 330 329 329 328 327 326 325 325 324 323 321 316 321 330 329 328 329 329 330 333 336 335 335 336 337 337 337 337 336 335 336 336 336 334 333 332 331 329 326 326 325
340 341 343 342 340 340 339 339 337 338 337 332 328 330 332 335 337 338 338 339 338 338 340 340 340 340 340 340 340 339 339 338 337 337 336 333 329 326 327 328 328 329 330 331 331 330 329 328 327 327 325 326 324 321 321 317 319 328 329 327 329 328 330 333 335 335 335 336 336 337 337 337 335 334 335 336 336 335 333 332 331 329 327 326 325
340 340 341 342 341 340 340 340 338 338 339 336 332 326 323 328 334 337 338 338 337 337 338 339 340 340 340 340 340 339 338 336 335 335 335 331 327 325 326 327 329 329 330 332 332 332 331 329 327 326 325 326 324 319 319 317 317 326 328 326 327 327 329 332 333 334 335 335 336 336 336 336 334 334 334 335 336 335 334 332 331 330 328 327 325
339 339 339 342 342 341 341 342 340 339 339 339 337 330 319 320 328 335 337 338 338 337 337 337 337 337 338 338 336 335 334 333 333 332 330 326 324 325 326 327 328 328 329 331 332 333 331 330 328 326 325 327 324 321 324 320 316 323 327 325 325 325 328 331 331 333 334 334 335 335 335 335 334 334 334 335 335 336 334 331 331 331 329 327 326
339 339 338 339 341 342 341 341 341 341 341 340 340 336 326 319 320 326 331 334 335 333 333 332 330 328 330 330 328 328 332 334 335 333 330 327 327 327 326 327 328 328 327 328 330 332 332 330 329 327 326 327 325 323 328 326 318 320 324 324 323 324 328 329 330 332 333 334 334 334 334 334 334 333 333 334 334 335 335 332 331 331 329 327 327
339 338 338 338 339 341 341 341 341 341 342 342 342 340 336 327 320 321 322 324 324 323 325 326 325 323 324 324 324 328 333 334 335 336 334 333 332 331 329 328 327 327 326 326 327 330 331 331 330 329 327 327 326 325 329 329 324 322 323 324 323 323 326 328 329 330 331 333 333 333 333 333 332 332 331 332 333 334 335 333 332 331 329 327 327
340 338 338 338 337 339 340 342 342 341 341 342 343 342 341 336 327 325 326 324 322 320 321 324 325 325 327 326 326 329 332 333 335 337 336 335 335 334 332 330 328 327 326 325 325 329 330 330 330 329 327 328 328 327 328 329 328 327 327 327 324 324 327 328 328 328 329 331 332 332 332 331 329 329 329 330 331 333 334 334 333 332 330 328 327
340 339 339 339 338 338 339 341 342 342 341 341 342 342 342 341 335 331 331 331 328 326 324 325 327 328 329 330 330 331 332 333 336 337 337 336 336 335 334 332 330 329 329 327 325 329 331 329 330 330 328 329 330 330 328 328 328 328 329 329 327 326 327 328 328 327 328 329 330 331 331 330 328 327 325 325 327 330 334 335 333 333 332 329 328
340 340 340 339 339 339 338 339 341 342 342 341 341 342 342 342 341 337 335 335 333 332 329 328 330 332 332 332 332 333 334 335 336 337 337 337 336 336 336 334 332 331 333 332 328 329 332 331 330 331 330 330 331 331 329 328 328 328 328 329 329 328 328 328 328 327 327 328 329 329 329 330 329 327 324 323 322 323 330 334 334 333 333 331 328
340 340 340 340 339 339 339 339 340 340 342 342 341 342 341 342 342 341 339 338 338 337 335 333 333 335 335 335 335 335 336 336 337 338 337 338 337 337 337 336 335 333 334 335 332 330 332 333 331 331 332 331 331 331 330 329 329 328 328 328 328 329 329 328 328 327 327 327 328 328 327 327 326 324 322 322 320 318 323 330 333 333 334 333 330
340 340 340 340 340 339 339 339 340 340 340 341 341 341 341 341 341 341 341 341 341 340 339 338 337 338 338 337 337 336 338 338 337 338 338 338 338 337 337 337 336 335 335 335 334 332 333 333 332 332 332 332 332 331 331 330 329 329 328 328 328 328 329 329 329 328 328 328 328 328 327 326 325 323 322 320 320 318 318 322 329 333 333 333 331
339 340 339 339 340 340 339 338 339 340 340 340 340 341 341 341 341 341 342 342 342 341 341 341 340 340 340 339 339 338 338 339 338 339 338 338 338 337 337 337 337 336 336 335 334 333 333 333 333 332 332 332 332 332 331 330 330 329 329 328 328 328 329 329 329 329 329 329 329 329 328 327 326 325 324 322 321 320 318 317 324 330 332 333 333
338 338 339 340 339 340 339 337 338 340 341 341 340 340 341 340 340 341 341 341 342 342 342 342 342 342 341 340 340 340 340 339 340 339 339 339 339 338 338 337 337 337 336 336 335 334 334 334 333 333 332 332 332 332 331 331 330 329 329 328 328 328 328 328 329 329 330 330 330 329 329 328 328 327 326 324 322 321 320 317 318 323 329 332 332
335 336 338 339 339 339 339 338 338 339 340 341 341 341 340 340 340 340 340 341 341 341 342 342 342 342 342 342 341 341 341 340 340 340 340 339 339 339 339 338 337 337 337 336 335 334 334 334 333 333 333 333 332 332 331 331 330 329 329 329 328 328 327 328 329 329 329 330 330 330 329 329 329 328 328 326 325 322 321 319 317 318 322 329 332
331 333 336 338 338 338 338 338 337 337 338 339 340 340 340 340 339 339 340 340 340 341 341 341 341 341 342 342 342 342 341 341 341 341 340 340 339 339 338 339 338 338 337 336 336 335 334 334 334 334 333 333 333 332 332 331 330 330 329 329 329 329 328 328 328 329 329 329 330 330 330 329 329 328 328 328 327 326 323 321 319 317 318 323 329
321 323 329 335 337 338 337 337 337 337 337 337 338 338 339 340 339 339 339 339 339 340 340 341 341 341 341 341 342 342 342 342 341 341 340 340 339 339 339 339 339 338 337 337 336 335 335 334 334 334 334 334 333 333 333 333 332 330 330 330 330 330 329 328 328 328 328 328 329 329 329 329 329 328 328 328 328 328 327 325 323 321 319 319 323
311 312 316 323 330 334 333 332 334 336 336 337 336 336 338 338 338 338 337 337 338 338 339 340 340 340 340 340 340 341 341 342 342 341 341 340 339 339 340 339 339 339 337 337 337 336 336 335 334 334 334 334 334 334 334 334 333 332 332 331 331 330 330 330 329 328 328 329 329 329 329 329 329 329 328 329 329 328 328 327 326 325 323 321 320
310 310 311 313 318 325 328 328 329 330 332 335 336 336 336 336 337 337 337 336 336 337 337 338 339 339 339 339 339 339 339 340 341 341 341 341 340 340 340 339 339 339 337 337 337 337 336 336 335 334 334 334 334 334 334 334 334 333 333 332 332 332 331 331 330 330 328 328 329 329 329 329 329 329 329 329 329 329 328 328 328 327 326 326 324
309 309 308 308 310 314 319 323 324 324 325 328 332 334 334 335 335 336 336 336 335 336 336 336 337 337 338 338 337 338 338 339 339 341 341 341 340 340 340 339 339 339 337 337 337 336 336 336 336 335 335 334 334 334 334 334 334 333 333 333 333 332 332 332 331 331 330 329 328 328 329 329 330 330 330 330 329 329 329 328 328 328 328 327 327
309 308 308 308 308 308 311 314 318 319 319 321 325 330 332 333 334 334 335 335 335 335 336 336 336 336 336 336 336 336 337 337 338 339 341 341 341 340 340 340 340 339 338 338 337 336 336 336 335 336 336 335 335 334 334 334 334 333 332 332 332 332 332 331 331 331 331 331 330 329 329 329 330 330 330 330 330 330 330 329 329 329 329 328 328
308 309 309 309 308 308 309 310 313 314 315 316 319 325 329 331 332 333 334 334 334 334 335 335 335 335 335 335 335 335 335 336 336 337 338 340 340 340 340 340 339 339 339 338 337 337 336 335 335 336 336 335 335 335 334 334 334 333 333 333 332 332 331 331 331 331 331 331 331 331 330 330 330 330 330 330 330 330 330 329 329 329 329 329 329
307 307 309 310 310 309 309 309 310 311 313 315 316 319 324 328 330 331 333 333 333 333 334 334 334 335 335 335 334 334 334 335 335 336 337 339 340 340 339 339 339 339 339 339 338 338 337 336 335 335 336 335 335 335 334 334 334 333 333 333 333 333 332 332 331 331 331 331 330 331 331 331 331 330 330 330 330 329 329 328 328 328 328 329 329
306 306 307 309 309 309 309 309 309 310 311 313 314 315 318 322 325 327 330 331 332 332 332 333 334 334 334 334 334 333 333 334 335 335 336 338 339 339 339 338 338 339 339 339 338 338 337 337 336 335 335 335 335 334 334 334 334 333 332 333 333 333 333 332 332 331 331 330 330 330 331 331 330 330 329 329 329 328 328 327 326 325 326 329 329
306 306 306 306 307 307 307 308 308 308 309 310 312 313 314 316 319 321 324 327 329 330 331 332 332 333 333 333 333 333 333 333 334 335 336 337 338 338 337 337 337 338 338 338 338 337 337 337 336 336 335 335 335 335 334 334 333 333 333 333 332 332 332 331 331 332 331 330 330 330 330 330 330 329 329 329 329 328 328 327 326 325 325 328 329
304 304 304 304 305 305 306 307 307 307 308 308 309 310 312 312 314 316 318 321 324 326 328 329 331 332 332 333 332 333 333 333 333 334 334 335 336 336 336 336 336 336 336 337 337 337 337 337 337 336 336 335 335 334 335 334 334 334 333 332 331 330 331 330 329 330 329 330 331 330 331 330 330 330 329 329 329 328 328 327 327 326 327 328 328
302 302 302 302 302 302 303 304 305 306 307 307 307 308 309 309 310 312 313 314 316 319 321 325 329 330 330 331 332 332 333 333 333 333 334 334 334 334 335 335 334 335 336 337 337 337 337 337 337 336 336 335 334 334 334 334 334 334 332 332 332 331 332 329 328 329 328 329 330 330 330 330 329 329 328 328 328 328 327 327 327 327 328 328 328
302 302 301 301 301 301 302 302 302 303 304 305 306 307 307 307 308 310 311 311 311 313 315 317 322 327 329 330 330 331 332 333 333 333 333 333 333 333 333 334 333 333 335 336 337 337 337 337 336 336 336 336 335 334 334 334 334 334 333 332 332 331 330 327 328 330 328 328 329 329 329 328 327 327 327 328 328 328 327 327 327 326 326 327 328
301 301 301 301 300 301 301 301 302 302 302 303 304 305 306 307 307 308 310 310 310 311 313 313 315 319 324 328 329 330 330 330 331 332 332 332 333 333 332 333 333 332 332 333 335 335 336 337 337 336 336 336 335 334 333 333 333 333 333 332 331 330 329 328 328 329 328 328 328 328 327 327 327 327 328 328 327 326 326 326 325 325 326 327 327
300 300 300 300 300 300 301 301 301 302 302 303 303 304 304 305 306 307 308 309 309 310 311 312 312 313 317 321 324 327 328 328 328 329 330 331 332 332 332 332 331 331 331 332 332 332 332 334 335 336 336 336 335 334 333 333 332 332 333 332 331 331 330 328 327 326 327 328 327 326 326 326 326 326 326 325 324 323 324 324 324 325 326 326 326
300 300 299 299 299 299 300 300 300 301 301 302 303 303 303 303 304 306 307 308 308 309 309 310 310 311 312 314 317 321 325 327 327 327 327 329 330 330 331 331 331 331 330 331 332 332 331 330 332 333 335 335 335 334 334 333 333 332 332 332 331 331 329 329 328 326 326 327 327 326 324 325 325 324 324 324 322 322 323 324 324 326 326 325 324
299 299 299 299 299 299 299 299 299 299 300 301 302 302 303 303 303 303 305 306 307 308 308 309 309 309 310 310 312 315 320 323 325 325 325 326 327 328 328 329 329 330 330 331 332 333 334 332 332 332 334 335 335 335 334 333 333 332 332 331 330 329 328 327 327 327 326 325 325 324 321 322 325 323 323 323 323 322 323 323 324 324 324 324 324
299 299 299 299 299 299 299 299 299 299 299 299 300 301 302 303 303 303 303 304 305 306 307 308 309 309 309 309 310 311 314 318 321 323 323 324 324 326 326 326 327 328 329 330 331 332 333 334 334 335 335 335 335 335 334 334 333 332 331 330 329 329 327 326 326 326 325 324 325 324 320 320 322 321 321 322 322 322 322 322 323 323 323 323 322
Wind_Speed
22 24 29 26 26 26 23 23 21 21 22 22 21 19 20 19 19 18 18 18 20 21 21 20 18 16 16 17 18 19 20 20 18 18 17 16 15 15 14 14 15 15 15 15 14 13 13 13 12 12 12 11 9 9 12 13 13 14 15 15 15 15 14 14 14 15 15 14 13 12 14 15 16 17 17 18 18 18 17 16 15 16 16 16 15
24 26 29 27 27 26 24 23 22 21 22 22 21 20 19 19 19 19 19 19 19 20 20 20 17 15 16 17 19 20 20 20 18 18 17 16 15 14 14 14 15 16 16 15 14 12 12 12 11 10 10 11 8 8 10 11 13 13 14 14 14 14 13 12 12 13 14 13 13 12 13 14 15 16 16 16 16 16 16 14 15 16 16 15 14
26 27 28 28 28 27 25 23 22 22 21 22 21 20 19 18 18 18 19 19 19 19 19 19 17 15 15 16 18 20 20 19 18 18 17 16 14 14 14 14 16 16 15 14 13 12 11 11 10 9 9 10 8 7 9 10 12 12 12 12 13 13 12 12 11 12 12 13 13 12 13 13 14 14 14 15 15 15 15 14 14 15 15 13 13
27 27 28 29 28 27 25 23 22 21 21 22 22 21 19 18 18 18 19 19 20 19 19 18 16 15 15 16 18 20 20 20 19 18 16 15 14 14 14 14 16 15 13 13 13 11 10 10 9 9 9 9 8 8 8 8 10 10 10 11 12 12 12 12 12 12 12 13 13 12 12 12 13 13 13 14 15 15 15 14 14 14 14 13 13
27 26 27 30 29 27 25 23 22 21 20 21 22 21 20 19 18 18 18 19 19 19 19 17 15 15 16 16 18 20 20 20 18 17 15 14 14 13 14 15 16 14 12 12 11 11 10 9 8 8 8 9 8 8 7 8 9 9 9 10 11 12 12 12 13 13 13 13 12 10 11 13 13 12 13 14 14 14 13 13 12 12 12 12 13
27 26 26 29 28 27 25 24 22 21 20 19 21 21 20 19 18 18 18 18 18 18 18 16 15 15 16 17 17 20 20 19 17 16 15 14 13 13 13 14 15 13 11 10 9 10 9 8 8 8 8 8 7 7 6 8 8 7 8 9 11 12 12 12 13 13 12 12 11 11 13 13 12 12 12 13 13 12 12 11 12 12 11 11 12
26 26 26 26 27 28 26 25 23 21 19 18 19 21 20 19 18 18 18 18 18 18 17 15 14 15 16 16 17 19 20 18 17 16 15 14 13 13 13 13 13 11 9 9 9 8 6 7 8 8 9 7 7 6 5 7 7 6 7 8 10 11 12 12 12 11 10 11 11 11 12 13 12 13 12 12 12 12 13 12 12 12 11 11 12
25 26 25 24 25 28 27 25 23 21 20 18 18 19 20 20 19 18 18 18 18 18 17 15 15 15 15 16 18 19 19 17 16 16 14 14 13 13 13 12 11 10 9 8 7 6 5 8 9 10 10 7 7 6 5 5 6 5 6 7 9 11 12 12 12 10 9 11 12 11 11 12 12 13 12 12 12 13 13 11 10 11 11 11 11
24 25 25 23 24 27 27 25 23 21 20 19 18 18 19 20 20 19 18 17 17 17 17 15 15 15 15 16 18 19 17 16 16 15 14 14 14 13 12 12 11 10 9 7 5 4 6 8 9 10 11 8 7 6 4 4 5 5 4 6 8 11 11 12 11 9 8 9 12 11 10 11 12 12 12 12 12 12 10 8 8 10 10 8 9
23 23 23 22 24 27 26 24 23 20 19 19 19 18 18 19 20 19 18 18 17 16 17 16 15 15 16 16 18 18 17 16 16 15 14 14 13 12 12 11 11 11 10 7 5 4 5 7 9 9 11 9 6 5 4 4 5 4 4 5 8 10 10 10 8 7 8 9 13 12 10 11 11 11 11 11 11 8 6 7 9 9 8 6 8
22 22 21 21 24 26 25 23 22 20 19 18 18 18 17 17 18 19 19 19 18 16 17 16 15 15 17 17 17 17 17 16 15 14 13 13 12 12 12 11 11 11 9 7 5 4 5 6 8 7 10 11 5 4 4 3 5 5 5 4 8 10 10 10 8 7 10 10 13 13 11 10 11 11 11 10 8 6 5 6 9 8 7 8 10
21 21 19 20 22 25 24 22 21 19 19 18 18 17 17 16 17 18 19 20 19 17 17 16 15 16 17 18 18 18 18 16 14 14 13 12 12 11 10 10 10 9 8 7 5 4 4 5 5 6 7 12 8 5 4 3 4 5 5 5 8 9 10 11 8 5 8 9 11 13 11 10 11 11 11 9 6 5 5 6 8 8 9 10 10
21 20 19 18 20 24 23 21 21 19 19 18 18 17 17 17 17 18 19 20 19 18 17 16 16 17 18 17 18 19 18 16 14 14 12 11 11 11 10 9 9 8 7 6 5 4 4 4 3 4 6 11 10 6 5 4 4 5 5 5 7 8 9 11 8 3 6 9 10 11 11 11 11 11 9 7 5 5 6 6 7 7 10 10 9
21 19 20 18 18 22 22 21 21 19 20 19 18 18 18 18 18 19 20 20 19 18 17 16 17 18 18 17 18 19 17 15 14 13 12 11 10 10 10 8 9 7 6 5 4 3 3 3 2 3 6 11 10 7 6 5 5 5 4 5 6 8 7 9 6 2 5 9 9 10 10 11 11 9 7 6 7 6 5 4 5 7 10 9 9
21 20 21 19 18 21 22 21 20 19 20 20 19 19 19 19 19 19 19 19 18 17 17 17 18 18 18 17 18 18 17 15 14 13 12 11 10 9 9 8 8 7 6 4 3 3 2 3 2 2 5 10 10 8 7 6 6 6 4 4 6 7 6 7 5 2 3 6 8 9 9 10 10 7 6 7 8 6 4 4 5 7 10 10 9
20 20 20 20 19 21 22 21 20 19 20 20 20 19 19 20 19 20 19 19 18 17 17 17 18 17 17 17 17 18 16 15 14 14 13 12 11 9 9 8 7 6 6 4 3 2 1 2 2 2 3 7 8 7 7 7 7 6 5 4 6 6 5 6 5 3 2 2 5 8 8 9 8 7 6 6 7 7 5 4 7 6 6 9 8
20 18 17 19 21 22 22 21 20 19 20 21 20 19 19 19 19 19 19 18 18 17 17 18 17 17 17 17 17 17 16 15 14 13 13 12 10 10 9 9 8 7 6 5 3 2 1 0 1 3 2 3 4 4 5 8 8 7 5 3 5 6 5 6 5 3 2 2 4 5 7 9 8 7 7 6 7 7 5 5 8 4 4 9 7
19 17 16 19 20 21 21 21 20 18 20 21 20 20 19 19 19 19 19 18 18 17 17 18 17 17 17 17 17 16 15 15 14 12 12 11 10 10 10 9 8 7 6 5 4 3 2 1 0 3 2 0 2 2 4 8 10 8 5 4 5 6 6 5 4 1 2 3 5 5 6 9 9 7 6 7 8 7 6 7 8 1 3 8 5
17 16 17 19 19 20 20 18 19 17 18 21 21 20 19 19 19 19 20 19 18 18 18 18 17 18 18 17 17 16 15 15 13 12 12 10 9 10 10 10 9 8 7 6 5 4 3 2 1 3 3 2 2 3 3 7 10 9 6 5 5 6 6 4 3 0 2 2 5 6 6 8 8 7 6 6 7 7 7 8 8 3 5 8 5
15 16 18 19 19 21 20 18 18 17 17 20 22 21 21 20 20 20 20 20 19 19 19 18 18 18 18 17 17 17 15 15 14 13 12 11 10 10 10 9 9 9 9 7 7 6 5 4 3 3 4 3 3 4 4 6 10 10 7 7 6 7 7 4 2 1 1 1 4 6 6 7 7 7 6 5 6 7 8 7 7 6 7 7 4
14 15 18 19 19 21 21 19 19 18 16 18 20 22 22 22 21 21 21 20 20 20 19 19 19 18 18 18 18 17 16 15 14 14 13 12 11 10 10 9 8 8 9 9 8 7 6 5 4 4 4 4 5 5 5 6 10 11 9 8 7 8 7 4 2 2 2 3 5 6 6 7 7 6 5 5 6 8 10 8 9 9 7 7 5
15 15 16 18 20 21 21 20 19 20 18 16 17 20 21 22 22 23 22 21 20 20 20 20 20 19 19 18 18 17 16 14 14 14 15 13 13 12 10 9 9 8 10 10 9 8 8 7 5 5 5 5 5 5 6 6 10 12 10 10 8 8 8 3 3 4 3 4 5 6 5 7 8 6 5 6 6 7 10 10 10 11 9 7 6
16 15 16 18 20 21 21 19 19 21 21 18 17 18 19 21 22 24 24 23 22 21 20 20 20 20 20 19 18 17 15 12 12 13 14 13 13 12 12 11 10 9 10 11 11 10 9 8 6 5 5 5 6 5 5 5 10 13 10 10 9 9 9 4 6 6 5 6 6 6 6 7 9 8 7 6 7 7 9 12 12 12 11 8 7
18 16 16 18 19 20 21 20 19 21 23 21 19 19 19 21 22 23 24 25 23 22 21 20 20 19 19 19 18 16 14 13 12 11 12 12 12 12 13 12 12 10 10 12 12 12 10 9 8 7 7 6 5 3 5 6 7 11 11 10 10 10 8 4 8 8 6 9 8 7 6 8 9 9 8 7 8 8 8 12 12 12 12 9 9
17 16 16 18 19 20 21 22 20 22 24 22 21 20 20 21 23 23 23 24 23 23 21 20 20 19 19 19 18 16 15 15 15 14 13 14 13 13 14 14 13 12 12 12 12 12 12 11 10 9 8 6 4 3 6 8 6 8 10 9 10 10 8 6 9 10 7 9 10 9 8 8 9 8 8 7 8 9 8 11 13 13 13 11 11
15 16 16 18 20 20 21 22 22 23 24 23 21 21 20 21 23 23 22 22 23 23 23 21 21 21 20 20 19 19 18 17 16 17 17 16 15 14 15 16 15 14 13 12 12 11 11 12 11 10 9 7 6 3 6 9 6 7 9 8 8 8 7 8 10 11 9 9 10 10 9 8 8 7 6 6 7 9 8 10 13 14 14 13 13
16 17 16 17 19 20 20 21 22 23 25 23 21 20 20 21 22 24 23 23 23 24 25 25 24 23 23 23 22 22 21 19 18 20 19 17 17 16 16 17 17 16 14 13 12 12 11 11 11 11 8 8 10 6 6 9 8 9 10 8 7 8 9 10 10 11 11 10 11 11 11 10 10 8 7 7 7 8 9 10 13 15 15 14 15
16 17 17 17 18 20 19 20 21 22 24 25 23 22 21 21 22 24 25 24 25 26 26 27 26 25 25 25 24 24 23 22 22 22 21 19 19 20 18 17 18 17 15 13 12 13 13 12 12 13 10 8 11 11 9 10 10 12 13 11 10 10 11 11 10 11 12 12 12 12 13 14 13 12 12 11 10 9 9 10 12 15 16 16 16
14 15 16 18 18 20 20 19 19 19 22 24 24 24 23 21 21 24 26 26 26 26 26 27 27 26 27 27 26 25 25 24 24 23 22 21 21 22 21 19 18 17 17 16 14 13 15 15 12 14 15 10 10 13 12 12 11 12 13 13 13 12 12 13 12 12 12 13 14 14 14 15 16 16 15 14 13 12 11 10 11 14 17 18 17
11 11 13 15 17 19 20 21 19 16 18 21 22 23 23 23 22 23 24 26 27 26 26 26 27 27 27 28 28 28 26 26 26 24 23 23 23 23 23 22 19 19 20 20 16 15 16 17 14 14 16 14 13 13 13 13 12 11 12 12 13 14 14 14 13 13 13 14 14 15 15 15 16 16 15 15 15 14 14 13 12 14 16 19 18
8 8 10 11 13 18 20 20 21 17 16 18 20 21 22 22 22 22 23 25 26 26 26 27 27 27 27 28 29 29 28 26 26 25 24 24 24 24 24 24 22 21 23 22 19 18 18 19 17 16 16 16 16 15 15 14 13 13 12 12 13 14 14 14 14 14 14 15 15 15 15 15 16 15 14 14 15 15 16 15 14 14 15 19 20
9 9 10 10 11 15 17 17 20 21 18 17 18 19 20 20 20 21 22 24 24 25 26 27 27 28 28 28 29 30 30 28 27 26 25 25 25 25 24 25 26 24 24 23 21 20 20 20 19 19 18 17 17 17 16 16 15 15 15 14 15 15 15 14 15 15 15 15 15 14 15 15 15 14 13 13 14 15 16 16 16 16 15 18 21
10 10 10 11 11 12 14 14 17 21 22 20 18 18 19 20 20 19 20 22 22 24 25 26 26 27 28 29 29 30 31 30 28 27 27 27 26 26 26 25 27 26 25 24 23 22 22 21 21 20 19 18 18 17 17 17 17 17 16 16 16 17 16 15 16 16 15 16 15 15 15 15 14 14 14 13 13 14 16 17 17 17 17 18 20
6 6 7 11 12 12 13 14 15 18 21 22 20 19 20 21 20 20 20 21 21 22 23 25 25 25 27 29 29 29 30 29 29 28 28 28 28 27 27 26 26 26 26 25 24 24 23 22 22 22 21 21 20 18 17 18 18 18 17 17 18 17 15 15 16 16 16 16 16 16 16 16 16 15 15 14 12 13 15 17 18 18 18 18 20
4 4 5 8 11 13 15 16 17 18 19 21 22 22 22 21 21 21 22 22 22 21 21 22 23 24 24 26 27 27 27 27 28 29 29 29 29 28 28 27 26 25 25 26 26 25 24 24 24 24 23 23 23 22 20 18 18 18 17 17 17 18 17 16 16 16 17 16 16 17 17 17 17 16 16 15 14 13 14 15 17 18 19 19 19
4 4 5 7 10 13 15 16 18 19 20 22 23 24 24 23 23 22 22 22 22 22 22 22 22 23 22 23 23 24 26 27 28 29 29 31 31 30 30 28 27 27 25 25 26 26 26 26 26 25 24 24 24 24 23 22 20 19 18 17 16 16 17 17 18 19 18 18 18 18 18 18 18 18 17 16 15 15 15 15 15 17 19 20 20
4 5 6 7 8 10 12 14 15 17 19 21 22 24 25 25 25 23 21 20 21 22 23 23 22 22 23 23 21 21 23 25 28 30 29 31 33 33 32 29 28 29 27 25 26 27 27 26 27 27 26 24 24 24 23 23 23 22 21 21 19 17 16 17 20 21 20 21 21 20 20 20 19 19 19 19 18 17 17 17 16 17 18 20 21
6 7 8 8 8 9 11 12 14 15 16 18 20 22 23 24 24 23 22 21 21 22 23 24 23 23 23 24 23 21 21 23 26 29 30 31 33 34 33 32 31 30 28 28 29 29 28 27 27 28 28 26 25 25 24 23 23 23 22 23 23 21 19 20 22 22 21 22 23 23 22 21 21 21 21 21 21 20 21 20 18 18 20 21 22
8 9 10 10 11 11 12 13 14 15 15 16 17 19 20 21 22 22 23 23 22 23 24 25 25 24 23 23 24 24 24 24 25 28 31 32 32 32 31 31 31 30 29 30 31 30 29 28 28 27 28 28 27 26 26 25 22 22 22 22 24 25 25 24 24 24 25 24 23 23 23 23 22 22 22 22 21 22 22 22 21 21 22 24 24
9 9 10 11 12 12 13 13 14 15 15 15 16 17 18 20 21 22 24 25 25 25 26 27 26 25 25 25 26 26 26 28 29 30 32 33 32 30 29 29 29 30 31 32 32 32 30 30 28 26 26 28 28 26 24 23 22 20 21 21 22 23 26 27 26 26 27 27 26 26 25 25 24 24 25 23 22 22 22 22 22 22 24 25 25
9 9 9 10 10 11 12 12 13 13 14 15 16 16 18 19 21 22 25 26 27 27 28 29 29 28 27 28 28 28 27 28 31 32 33 33 31 30 29 29 29 31 32 33 33 33 32 31 29 28 27 27 28 26 23 21 19 16 15 18 22 23 24 25 26 27 27 28 29 30 29 28 27 27 27 27 26 25 24 23 23 23 25 26 26
7 6 6 7 7 8 9 11 12 13 14 16 16 17 18 19 20 22 23 25 27 28 29 30 30 30 28 27 28 30 30 30 31 31 32 33 31 30 30 30 31 32 33 33 33 33 33 32 30 28 27 27 28 29 26 21 17 15 11 10 14 19 23 25 26 26 27 27 29 30 31 31 30 29 28 28 28 27 25 24 22 21 23 26 26
5 4 4 3 3 4 5 8 10 13 14 16 16 17 18 19 20 20 20 22 24 26 28 29 29 29 29 29 29 31 33 33 33 31 30 30 30 31 31 32 32 32 33 32 32 33 34 33 32 30 28 27 27 29 30 26 20 16 12 7 5 7 12 18 23 27 27 28 29 29 30 30 29 28 26 26 27 27 25 23 21 21 22 24 25
11 9 9 8 6 4 4 4 5 8 11 13 16 17 18 19 20 20 20 20 21 21 24 27 28 29 30 31 32 33 34 35 35 33 30 29 30 31 31 31 32 32 32 33 33 34 35 35 34 33 30 27 25 26 28 30 27 18 9 3 3 3 4 7 15 23 26 28 29 29 29 29 28 27 26 26 27 26 24 22 20 20 21 22 23
12 11 10 9 7 7 7 7 6 7 8 11 13 15 17 18 19 21 22 22 22 21 21 22 25 29 30 31 33 33 34 34 35 35 33 31 30 31 31 31 31 31 31 32 34 35 36 37 36 35 34 30 26 25 26 29 31 27 17 7 3 3 4 5 8 12 18 24 27 28 30 30 30 30 28 28 28 26 24 23 22 21 21 22 22
12 11 10 8 7 7 7 8 9 10 10 11 12 13 16 18 18 19 20 20 21 23 24 23 23 25 28 30 32 33 34 34 35 35 34 33 32 32 33 33 33 32 32 31 32 34 36 38 38 37 37 36 30 25 25 28 30 33 31 22 13 8 3 2 3 4 8 17 21 22 26 26 25 25 25 24 24 24 23 23 25 25 24 24 22
11 10 10 9 9 8 7 6 7 8 10 11 12 12 14 16 18 19 19 19 19 20 23 24 25 26 26 27 29 32 35 36 36 36 35 34 34 35 35 35 35 34 34 33 33 35 36 37 38 38 38 37 33 27 24 26 27 30 34 32 26 21 14 8 4 2 2 8 14 17 20 22 22 23 24 24 23 24 24 25 26 25 24 23 21
10 11 12 11 10 10 9 8 7 7 7 8 11 12 13 14 16 19 21 22 22 22 22 22 24 25 26 27 28 29 32 35 37 38 37 37 36 36 36 37 37 36 35 36 37 38 38 37 37 39 38 37 36 33 28 27 26 26 29 31 30 28 26 20 15 9 2 2 6 10 14 18 21 22 23 25 24 24 24 25 24 23 21 21 21
11 12 12 12 12 11 10 10 10 9 8 8 9 11 13 14 16 17 19 21 22 23 24 25 25 25 25 27 28 29 30 33 36 38 38 38 38 38 37 37 37 37 37 36 36 37 38 39 38 39 39 38 38 37 34 32 30 28 27 28 27 26 26 26 23 17 10 6 5 4 8 12 16 21 23 22 21 20 21 21 22 22 22 22 23
11 11 12 13 13 12 12 13 13 12 11 10 9 10 11 13 16 17 18 20 20 21 22 25 27 27 28 27 27 28 29 31 33 35 37 38 38 39 39 39 39 38 38 38 36 35 35 37 39 39 40 39 39 39 39 35 33 32 31 29 26 23 18 16 19 19 15 12 9 6 8 10 10 15 20 21 21 21 20 20 21 23 23 23 23
12 12 13 14 13 13 13 13 14 14 14 13 11 10 10 11 14 16 18 20 20 21 22 23 24 24 27 28 28 29 29 30 31 33 35 37 38 39 40 41 41 39 39 38 38 37 35 34 35 36 39 39 38 38 38 36 32 29 30 30 29 26 21 16 18 21 16 11 9 7 9 13 11 13 15 16 18 19 21 21 21 22 23 23 22
Wind_Direction
152 160 161 158 157 158 157 157 156 156 155 154 153 152 155 156 153 149 148 146 140 140 142 142 139 138 141 141 142 145 143 138 135 135 133 129 124 119 115 114 114 112 110 107 104 103 100 101 105 107 101 87 82 89 88 83 82 82 84 85 86 87 88 94 103 106 106 102 98 96 97 98 97 97 98 100 103 101 98 96 94 91 87 83 81
153 156 159 157 158 159 158 158 158 158 157 156 154 154 155 157 157 155 152 149 144 143 145 145 142 141 143 143 146 147 145 143 139 138 137 131 125 122 121 119 117 116 114 112 109 109 106 103 104 110 110 102 93 97 99 90 87 83 83 86 86 87 89 94 103 105 105 103 100 99 99 102 102 101 101 101 101 98 97 96 94 88 82 80 77
150 154 157 157 158 159 159 160 160 160 160 158 156 157 157 157 158 159 157 152 147 146 148 147 144 145 145 145 149 150 148 146 143 140 138 131 128 126 124 123 121 121 119 115 112 110 109 106 105 108 112 110 103 106 109 99 91 84 82 86 86 86 88 95 104 107 104 100 95 96 101 105 107 105 103 104 102 98 95 93 89 83 78 73 71
148 153 155 156 157 158 161 161 161 161 162 161 159 160 161 159 157 160 161 157 152 150 151 150 148 148 147 148 150 152 150 146 144 141 138 133 131 128 126 125 126 126 122 117 113 111 108 106 105 108 115 115 111 114 118 112 99 88 83 84 85 85 86 94 105 109 106 100 95 96 105 110 112 111 108 106 104 99 94 91 87 81 79 74 70
146 151 155 157 157 160 162 161 163 163 163 164 163 164 165 163 158 159 162 161 157 154 154 153 153 152 150 150 151 153 151 147 144 142 140 136 134 130 129 129 130 130 126 122 115 111 106 104 105 108 118 118 116 121 125 118 105 92 87 84 86 86 85 96 106 110 110 107 106 108 115 118 118 115 113 108 104 100 97 95 90 83 82 77 73
146 152 154 156 159 162 162 162 166 165 165 167 167 167 168 167 162 159 162 164 162 160 159 158 157 156 153 152 153 154 152 148 145 144 142 140 137 133 133 133 135 135 131 126 117 112 104 94 99 113 123 122 120 129 130 121 113 96 91 89 87 87 87 98 109 110 111 111 108 113 121 124 123 120 115 107 103 102 101 96 88 82 80 77 79
148 151 152 156 161 163 163 164 165 166 166 168 170 169 170 170 167 163 162 164 165 165 165 163 161 160 157 154 154 153 152 148 146 146 145 143 139 137 136 135 137 139 134 127 121 115 96 78 89 117 129 126 126 135 132 124 121 102 94 96 91 91 90 95 108 106 109 115 108 110 122 125 125 121 115 109 107 104 99 91 85 81 76 79 83
147 152 152 156 163 164 163 164 165 166 167 170 174 172 172 173 172 169 164 164 166 168 169 168 165 165 160 156 155 154 153 150 149 150 149 145 142 142 141 139 137 136 132 127 130 116 80 72 87 119 133 129 132 139 135 131 132 113 99 101 97 96 94 96 104 105 115 125 119 115 123 127 128 124 120 117 107 99 95 86 85 81 81 88 84
147 152 153 157 165 165 164 164 165 165 167 174 178 174 172 174 175 173 170 167 167 169 172 171 167 166 163 160 158 156 155 153 154 155 152 149 148 147 143 139 136 137 136 132 135 107 78 75 85 118 134 133 144 148 136 142 148 133 114 105 102 100 99 96 99 111 125 133 130 126 129 133 131 128 124 115 102 96 93 79 81 87 96 98 79
147 152 154 162 169 167 166 166 165 165 169 177 177 173 173 175 175 174 175 172 169 169 171 174 170 166 165 163 159 156 156 156 158 157 153 152 150 149 144 139 142 149 147 137 135 108 89 80 81 113 136 139 154 159 145 159 162 153 141 117 106 104 101 88 80 116 136 140 140 134 136 139 135 131 122 111 104 101 93 75 75 82 94 82 71
147 151 155 169 173 168 168 169 168 168 172 175 172 170 172 173 174 174 177 175 171 170 172 175 171 169 167 162 159 158 159 159 160 157 153 153 151 150 150 149 156 156 150 144 145 132 103 91 80 97 139 145 151 175 161 165 173 166 159 135 114 106 98 81 68 119 140 141 144 143 142 143 138 132 123 115 109 103 98 78 65 62 73 78 86
146 151 160 172 175 172 170 172 172 170 171 170 167 165 166 167 170 172 175 174 173 173 173 174 173 170 166 161 160 159 161 161 160 157 154 157 153 151 154 156 160 154 154 154 155 153 115 103 89 82 141 153 153 181 188 188 186 173 166 151 125 110 95 83 73 115 136 135 143 149 152 150 144 136 128 122 110 100 94 72 59 64 82 91 97
145 154 164 170 174 175 172 173 174 171 169 165 163 161 161 164 167 169 172 174 173 173 173 173 172 168 164 162 162 162 164 164 161 159 158 163 159 154 156 159 158 153 162 164 155 153 121 103 92 86 144 163 161 170 190 202 196 183 173 162 135 115 99 86 73 89 125 138 147 150 158 156 147 142 138 124 98 95 94 76 59 77 96 97 98
145 153 161 166 172 176 173 173 175 171 167 164 163 163 164 167 169 170 172 174 173 172 172 171 169 167 166 165 165 166 168 167 164 164 165 169 169 164 164 161 160 160 167 167 148 139 115 95 76 84 145 166 170 174 183 195 198 194 179 170 143 118 104 90 77 66 123 145 152 150 164 161 149 148 146 122 105 110 107 80 48 85 108 104 108
143 148 157 165 168 175 175 173 175 172 168 165 164 167 170 170 171 174 175 173 174 173 171 170 170 170 168 167 169 169 171 170 169 171 170 171 173 174 175 170 166 170 172 166 150 135 103 100 96 69 141 164 178 192 203 206 200 196 190 179 148 124 104 96 94 74 104 149 157 149 161 155 149 154 142 122 119 128 121 83 77 99 108 112 126
144 148 156 163 164 172 176 175 177 173 170 167 167 173 174 173 174 176 177 175 177 175 171 171 173 173 169 170 172 172 173 174 177 177 173 176 179 179 182 178 172 179 183 181 175 158 111 110 144 141 134 161 175 191 210 212 203 197 197 187 157 139 111 104 108 101 82 161 165 155 163 159 155 154 144 132 129 138 136 115 119 118 106 123 141
142 146 151 160 166 171 174 176 178 176 173 170 170 177 178 176 177 177 177 178 181 179 174 172 173 173 171 173 176 176 177 180 185 183 179 185 188 187 189 184 181 189 194 193 199 199 192 101 145 169 152 148 168 179 193 199 201 201 199 189 170 152 127 119 111 110 139 174 176 175 177 174 165 155 155 149 145 151 154 146 142 134 107 135 150
140 142 144 155 165 169 172 176 179 179 176 173 173 180 182 180 181 180 179 181 183 182 178 174 175 175 174 176 180 181 183 187 191 188 188 195 197 195 195 191 188 196 201 203 212 223 214 244 214 188 206 198 202 200 181 191 197 204 205 194 179 160 144 125 100 93 210 177 179 193 185 179 174 166 166 162 159 159 156 151 152 146 111 145 156
143 142 143 151 161 163 168 176 179 182 180 178 178 180 185 185 184 185 184 185 184 183 182 178 179 179 178 180 184 187 188 192 195 195 198 205 204 195 196 199 199 203 210 212 214 224 225 238 243 209 239 276 248 240 207 198 197 205 208 196 189 169 157 132 110 246 256 186 189 196 192 189 188 181 174 175 174 166 161 159 163 169 137 155 158
151 148 147 153 160 161 166 176 178 182 185 183 183 183 187 189 188 189 189 189 188 186 186 185 185 184 185 186 189 192 193 195 198 202 206 213 212 200 197 202 205 210 217 217 213 223 230 241 252 235 252 277 266 249 235 212 201 205 210 201 197 180 162 136 133 259 271 226 224 216 206 197 199 197 191 192 188 173 170 173 180 177 158 173 174
160 155 154 156 162 166 170 178 179 180 186 187 188 190 191 193 191 190 191 193 193 191 190 190 191 190 191 193 194 196 198 201 204 208 212 218 221 216 209 209 211 214 219 220 218 225 234 244 256 254 259 273 272 257 247 224 205 205 211 207 201 187 171 143 181 235 242 238 236 236 228 201 197 206 210 213 211 192 183 183 192 196 186 196 193
167 165 163 162 164 171 176 182 182 180 186 188 191 196 196 196 194 191 194 197 197 196 194 195 196 196 198 199 200 201 201 206 211 213 216 220 223 223 219 220 223 222 221 223 222 225 235 244 252 257 258 267 276 266 253 230 208 206 213 212 208 192 174 163 219 216 234 250 243 240 237 210 204 216 218 220 230 216 204 191 192 212 214 210 200
173 175 171 171 169 173 177 183 184 180 186 189 191 202 201 198 196 195 197 200 201 201 201 201 202 204 205 206 207 204 197 202 213 214 217 221 223 224 224 226 230 231 226 225 225 223 230 240 247 253 252 263 277 260 246 246 216 208 215 217 215 196 173 184 233 221 229 242 248 239 231 225 221 225 221 221 239 248 227 201 193 209 211 207 202
176 181 179 179 177 177 180 184 186 184 187 187 188 200 205 202 199 199 201 203 205 205 204 206 207 207 207 207 206 200 190 196 211 217 219 220 222 223 225 226 228 233 231 226 226 224 226 232 240 248 248 260 270 227 216 260 240 216 222 228 225 204 182 206 229 221 232 239 244 239 234 236 229 230 231 233 242 261 250 213 197 200 206 207 205
176 183 186 186 185 185 186 188 188 186 188 188 188 195 203 203 199 200 202 204 206 205 204 205 207 205 205 207 203 196 193 196 208 219 218 216 219 221 222 220 220 224 227 228 227 226 226 228 234 242 245 251 256 197 206 246 259 233 236 245 238 214 197 222 222 214 230 246 247 244 243 239 233 238 240 246 244 253 261 227 205 201 209 211 209
179 183 188 191 192 192 193 192 190 189 190 191 192 195 201 201 198 199 201 203 205 205 204 204 205 204 205 209 205 200 201 197 205 216 215 214 216 221 222 217 216 217 220 224 222 222 227 228 231 238 239 234 235 199 205 234 245 240 253 266 249 222 217 234 229 218 223 246 253 249 249 239 231 239 245 256 250 246 253 232 215 210 213 215 213
185 189 191 193 195 197 197 196 195 194 193 192 193 198 203 201 199 199 200 203 206 206 206 205 206 206 207 210 208 205 205 200 204 215 216 212 211 217 221 216 216 216 217 222 218 214 224 229 223 231 238 223 228 227 209 223 224 222 237 255 248 232 232 237 237 229 224 238 251 250 250 245 237 243 255 263 265 254 247 233 224 220 217 218 216
189 194 196 196 196 198 200 199 198 197 197 196 196 197 200 201 200 198 199 203 206 208 209 208 207 208 209 211 209 207 207 204 204 215 219 212 206 211 216 215 215 214 215 221 217 210 218 227 218 224 236 220 223 230 222 226 229 224 224 228 231 233 234 235 239 236 232 235 244 248 248 247 245 252 260 261 265 263 252 242 233 228 222 220 217
196 195 196 199 198 199 202 203 202 200 201 202 202 201 200 201 201 199 199 202 205 207 209 210 209 210 211 211 211 208 207 206 205 211 217 212 204 208 213 213 211 208 209 215 212 203 211 223 219 220 230 225 220 224 225 234 241 238 231 228 227 231 233 234 236 238 239 238 241 248 249 249 249 254 260 260 262 261 254 250 241 236 229 223 220
202 195 195 198 199 201 204 209 209 206 204 207 209 209 207 206 206 206 205 205 207 207 208 210 209 210 212 213 213 210 207 208 209 209 214 213 207 207 211 211 209 204 206 212 208 196 203 215 219 219 224 228 224 221 228 236 242 244 240 237 235 236 236 235 236 239 242 242 242 247 252 256 258 260 261 259 260 258 254 250 245 244 237 228 224
208 201 201 198 203 206 205 209 212 212 212 211 212 213 215 215 213 213 214 212 212 211 211 212 210 210 212 214 214 213 210 210 212 211 212 215 211 208 210 210 210 205 207 214 209 198 201 208 215 218 220 227 226 223 232 235 236 240 239 238 240 242 241 238 238 240 243 246 247 250 253 256 263 269 268 263 259 256 254 251 247 244 241 233 226
205 205 204 199 206 204 199 201 207 212 217 216 213 214 217 220 218 218 219 219 219 218 217 218 217 214 214 215 215 215 214 212 213 213 212 214 213 211 212 212 212 209 208 212 211 206 206 207 212 215 216 223 225 225 230 233 235 236 233 234 237 242 245 242 240 240 242 247 246 249 254 257 262 270 274 270 261 256 254 253 251 247 243 235 229
208 211 208 202 205 199 191 193 201 208 215 217 216 217 219 221 221 222 223 224 224 225 224 223 223 221 219 218 218 217 216 212 211 214 214 214 215 214 214 214 214 213 210 210 211 209 209 210 213 213 214 217 221 224 226 231 236 234 233 234 236 243 245 242 241 240 239 244 243 242 248 254 261 266 272 274 267 258 253 253 254 252 248 239 233
178 188 196 199 204 205 198 198 205 209 214 217 218 220 221 221 222 224 226 226 226 228 229 229 228 228 227 225 223 221 218 215 211 214 216 217 218 218 218 217 215 214 213 210 210 210 209 211 213 213 215 215 217 218 221 227 230 230 234 237 239 246 247 243 245 243 240 242 244 244 245 248 254 260 265 270 270 264 258 255 254 254 253 244 237
155 162 181 192 199 203 204 204 209 212 215 219 219 221 222 222 223 225 227 227 227 228 230 232 230 230 231 231 230 228 225 219 215 217 219 221 221 220 219 218 216 216 215 212 211 210 209 211 214 215 217 219 218 216 218 221 222 225 231 235 240 243 243 245 247 245 245 245 244 247 248 248 248 252 257 260 263 265 265 262 257 255 255 251 243
250 240 222 215 212 211 213 213 213 215 217 220 221 222 223 224 224 227 230 231 231 231 230 232 233 231 230 231 233 235 233 227 223 223 224 224 224 220 219 221 221 220 218 215 213 212 211 212 214 215 217 220 221 219 220 222 221 223 226 227 231 235 238 245 247 243 244 244 244 246 247 248 246 246 250 254 257 259 262 262 261 259 257 255 250
240 237 234 231 226 222 224 226 225 223 223 224 225 225 226 226 226 229 233 234 234 234 233 233 235 233 229 227 229 233 237 234 231 228 226 226 227 225 225 226 224 222 219 216 214 214 214 215 216 216 216 218 218 219 219 220 221 223 228 229 229 232 235 243 249 250 248 245 243 242 243 246 246 244 244 246 250 253 255 255 257 260 261 259 255
250 245 250 249 240 231 229 232 235 236 234 231 230 230 231 231 231 233 235 236 235 235 234 233 234 233 229 228 227 228 232 236 235 230 227 228 228 229 230 228 227 227 225 221 219 217 215 217 218 217 217 216 215 216 217 217 219 224 231 235 236 238 242 247 251 254 254 251 246 244 242 242 245 248 246 244 244 247 252 253 253 254 256 259 258
258 256 259 258 253 244 235 232 234 238 241 240 237 235 236 235 235 235 235 237 236 235 234 234 234 232 230 229 228 228 228 230 233 231 229 230 228 227 228 229 231 231 228 225 224 221 216 217 219 217 217 219 218 218 219 218 219 225 232 238 241 244 248 252 252 252 253 251 249 248 245 243 242 246 248 247 246 246 248 252 254 253 253 257 258
257 259 260 258 257 256 248 240 237 238 242 243 241 237 234 233 233 233 232 233 234 234 233 234 233 231 228 226 225 225 225 226 229 230 229 227 224 223 223 225 229 229 225 225 225 221 216 215 218 216 215 219 221 220 221 219 219 225 233 239 244 248 249 249 250 250 250 249 248 250 249 248 246 246 248 248 247 247 248 249 253 256 257 258 257
258 259 261 257 256 257 251 246 243 242 242 241 239 236 232 230 230 230 229 230 230 231 232 232 231 229 226 225 224 223 223 223 226 229 227 224 221 220 221 222 223 225 225 224 223 221 217 217 219 218 215 215 216 217 217 213 213 221 230 237 242 246 248 248 247 248 249 249 250 251 250 249 251 251 251 249 249 251 252 252 255 259 260 259 258
274 270 270 268 266 261 253 252 248 244 243 242 240 238 235 233 232 232 231 231 230 230 231 232 231 231 227 225 225 225 224 223 224 228 227 224 221 219 219 222 223 225 226 225 225 223 222 222 222 221 218 215 214 214 211 205 208 214 218 233 240 243 246 245 245 246 247 250 250 248 248 249 251 253 253 252 252 251 251 253 256 263 264 260 257
30 29 11 345 325 296 275 268 259 252 248 246 245 243 241 240 240 240 238 236 235 234 234 234 234 232 229 228 228 227 227 225 225 227 227 224 222 221 220 222 225 225 225 225 225 224 223 223 223 221 218 215 216 216 212 209 211 212 215 231 225 232 246 240 239 244 246 248 248 245 246 247 248 250 250 250 250 248 249 251 254 263 267 260 255
41 30 17 9 3 348 331 310 284 270 261 255 252 252 250 247 245 246 246 245 243 240 238 236 234 233 230 227 227 227 227 226 227 228 229 226 223 223 223 222 224 226 226 226 225 225 223 222 221 219 215 212 215 217 217 217 215 209 203 218 191 201 254 224 226 241 246 245 243 239 240 243 244 246 247 246 248 249 248 250 252 259 262 256 253
32 18 7 357 343 327 315 303 288 278 274 268 263 261 260 257 254 252 252 254 253 249 248 242 234 232 232 229 227 227 227 227 228 229 230 229 226 225 225 224 224 225 226 226 226 225 223 221 220 217 214 213 214 215 217 218 218 213 204 195 178 196 242 218 217 244 244 238 239 239 239 242 246 249 251 251 251 250 248 247 248 250 252 251 251
27 16 11 6 355 338 315 297 283 272 266 266 267 268 265 263 261 256 252 253 253 250 250 248 241 236 234 233 232 231 229 229 229 229 231 230 228 227 226 226 225 224 224 225 226 225 224 223 221 218 217 217 217 215 215 217 219 219 214 212 212 204 210 203 204 266 248 235 237 239 238 241 246 248 249 250 248 245 245 247 248 250 252 252 252
24 16 12 9 4 360 349 332 309 289 273 265 264 268 270 266 261 257 252 249 249 248 247 247 247 245 241 239 236 234 233 232 231 231 231 230 229 228 227 227 227 227 227 227 227 227 226 225 222 220 219 218 217 216 216 214 215 219 217 218 222 227 235 235 214 239 286 244 234 233 235 236 239 242 242 243 245 247 248 250 252 254 253 252 252
28 22 17 13 8 6 1 356 342 324 304 283 271 268 273 273 267 263 258 254 253 253 251 249 249 248 246 244 242 239 236 234 234 233 233 232 231 229 229 229 229 230 230 230 230 230 229 228 225 223 222 220 218 219 220 215 210 213 215 217 224 230 234 236 234 229 218 265 241 229 230 229 230 236 239 244 250 252 251 250 250 251 249 248 249
33 25 21 17 14 13 10 6 358 345 331 313 294 278 273 275 273 271 268 261 258 257 255 254 253 252 252 249 245 243 240 237 236 236 235 234 233 231 231 230 230 230 230 230 231 231 230 230 228 227 225 223 221 221 222 218 212 211 210 212 219 225 228 232 237 237 229 235 245 227 222 225 232 237 239 245 250 250 247 245 244 245 247 248 250
35 26 22 17 14 14 11 9 6 360 349 334 318 301 286 278 275 275 275 271 266 264 261 257 254 253 253 252 249 246 243 241 238 237 237 237 236 234 233 232 232 231 230 229 230 229 229 229 229 228 226 224 222 220 220 219 215 212 211 208 208 211 217 225 230 232 232 234 238 238 221 216 229 239 239 242 247 249 246 242 242 243 245 250 254
33 26 21 16 13 11 7 5 5 2 357 352 340 323 307 293 283 277 275 273 270 269 267 263 259 254 252 250 250 249 246 244 242 240 239 239 238 237 235 235 235 234 232 231 230 230 228 227 228 227 224 222 220 218 218 218 216 213 210 206 206 206 206 208 213 217 220 225 230 242 230 221 232 242 240 244 250 251 247 242 243 245 249 254 259